Tracking 18980 objects as of 23-Feb-2018
HD Live streaming from Space Station
objects crossing your sky now

FENGYUN 1C DEB

Track FENGYUN 1C DEB now!
10-day predictions


NORAD ID: 38510
Int'l Code: 1999-025ESV
Perigee: 798.3 km
Apogee: 948.9 km
Inclination: 98.9 °
Period: 102.3 minutes
Semi major axis: 7244 km
RCS: 0.0043 m2 (small)
Launch date: May 10, 1999
Source: People's Republic of China (PRC)
Launch site: Taiyaun Space Center, China (TSC)

Note: This is SATELLITE DEBRIS
aabbcc
Your satellite tracking list
Your tracking list is empty




NASA's NSSDC Master Catalog

Two Line Element Set (TLE):
1 38510U 99025ESV 18049.94191703  .00000373  00000-0  23416-3 0  9990
2 38510  98.8824 109.0336 0103977 306.8261  52.3405 14.07936557484690
Source of the keplerian elements: AFSPC